TNO5555 TJSJ-MNMG

Flight info

Callsign TNO5555
Flight time N/A
Altitude 38000
Route GANBO DCT CLAYO DCT TAYOG L221 SATOE UL349 PESTO/N0459F390 UZ894 BIRLO UM328 TIBUT/N0461F380 DCT RAKEL RAKEL1A
Aircraft A20N/M-SDE2E3FGHIRWXY/LB1

Departure

Time 2026-04-28 01:15
Airport Luis Munoz Marin International Airport (TJSJ)

Arrival

Time N/A
Airport Augusto C. Sandino (Managua) International Airport (MNMG)
Time Latitude Longitude Altitude Speed Heading
2026-04-28 01:10 18.43763 -66.00237 22 ft 10 kts 86°
2026-04-28 01:10 18.43766 -66.00169 22 ft 9 kts 87°
2026-04-28 01:11 18.43791 -66.00097 22 ft 14 kts 63°
2026-04-28 01:11 18.43855 -66.00055 22 ft 9 kts 345°
2026-04-28 01:11 18.43914 -66.00079 22 ft 9 kts 339°
2026-04-28 01:11 18.43985 -66.00110 22 ft 22 kts 341°
2026-04-28 01:12 18.44130 -66.00170 22 ft 23 kts 338°
2026-04-28 01:12 18.44260 -66.00247 22 ft 17 kts 308°
2026-04-28 01:12 18.44227 -66.00348 24 ft 29 kts 238°
2026-04-28 01:12 18.44139 -66.00542 25 ft 29 kts 240°
2026-04-28 01:13 18.44045 -66.00723 24 ft 28 kts 243°
2026-04-28 01:13 18.43890 -66.01087 23 ft 27 kts 247°
2026-04-28 01:13 18.43822 -66.01268 21 ft 26 kts 249°
2026-04-28 01:14 18.43772 -66.01448 21 ft 25 kts 255°
2026-04-28 01:14 18.43845 -66.01550 21 ft 19 kts 37°
2026-04-28 01:14 18.43956 -66.01295 22 ft 73 kts 67°
2026-04-28 01:14 18.44250 -66.00557 26 ft 146 kts 67°
2026-04-28 01:15 18.44706 -65.99431 403 ft 176 kts 67°
2026-04-28 01:15 18.45231 -65.98127 813 ft 211 kts 68°
2026-04-28 01:15 18.45780 -65.96710 1290 ft 232 kts 74°
2026-04-28 01:15 18.45805 -65.95014 1825 ft 242 kts 110°
2026-04-28 01:16 18.44790 -65.93599 2370 ft 250 kts 148°
2026-04-28 01:16 18.43123 -65.93122 3077 ft 256 kts 182°
2026-04-28 01:16 18.41473 -65.93750 3748 ft 264 kts 217°
2026-04-28 01:16 18.40398 -65.95318 4393 ft 272 kts 251°
2026-04-28 01:17 18.40291 -65.97306 5102 ft 276 kts 277°
2026-04-28 01:17 18.40635 -65.99303 5832 ft 279 kts 280°
2026-04-28 01:17 18.40950 -66.01326 6560 ft 281 kts 274°
2026-04-28 01:17 18.40674 -66.03342 7217 ft 281 kts 246°
2026-04-28 01:18 18.39698 -66.05116 7927 ft 281 kts 231°
2026-04-28 01:18 18.38419 -66.06669 8680 ft 281 kts 225°
2026-04-28 01:18 18.37034 -66.08108 9398 ft 283 kts 223°
2026-04-28 01:18 18.35605 -66.09551 10108 ft 286 kts 223°
2026-04-28 01:19 18.34181 -66.11030 10495 ft 300 kts 224°
2026-04-28 01:19 18.32683 -66.12657 10740 ft 318 kts 226°
2026-04-28 01:19 18.31134 -66.14412 10976 ft 335 kts 227°
2026-04-28 01:19 18.29545 -66.16265 11351 ft 345 kts 227°
2026-04-28 01:20 18.27937 -66.18167 11876 ft 350 kts 228°
2026-04-28 01:20 18.26315 -66.20096 12445 ft 353 kts 228°
2026-04-28 01:20 18.24681 -66.22038 13024 ft 356 kts 228°
2026-04-28 01:20 18.23029 -66.23996 13618 ft 359 kts 228°
2026-04-28 01:21 18.21363 -66.25969 14177 ft 362 kts 228°
2026-04-28 01:21 18.19681 -66.27955 14714 ft 365 kts 228°
2026-04-28 01:21 18.18008 -66.29926 15266 ft 367 kts 228°
2026-04-28 01:21 18.16303 -66.31935 15832 ft 369 kts 228°
2026-04-28 01:22 18.14588 -66.33953 16389 ft 371 kts 228°
2026-04-28 01:22 18.12863 -66.35983 16943 ft 374 kts 228°
2026-04-28 01:22 18.11128 -66.38024 17472 ft 376 kts 228°
2026-04-28 01:22 18.09379 -66.40081 17984 ft 378 kts 228°
2026-04-28 01:23 18.07620 -66.42149 18457 ft 381 kts 228°
2026-04-28 01:23 18.06087 -66.44420 18855 ft 384 kts 244°
2026-04-28 01:23 18.05077 -66.46983 19278 ft 386 kts 249°
2026-04-28 01:23 18.04250 -66.49670 19701 ft 388 kts 252°
2026-04-28 01:24 18.03546 -66.52415 20124 ft 390 kts 255°
2026-04-28 01:24 18.02897 -66.55190 20539 ft 392 kts 255°
2026-04-28 01:24 18.02259 -66.57982 20948 ft 394 kts 255°
2026-04-28 01:24 18.01611 -66.60779 21391 ft 395 kts 255°
2026-04-28 01:25 18.00947 -66.63584 21825 ft 397 kts 254°
2026-04-28 01:25 18.00267 -66.66399 22242 ft 399 kts 254°
2026-04-28 01:25 17.99583 -66.69188 22659 ft 401 kts 254°
2026-04-28 01:25 17.98881 -66.72028 23087 ft 403 kts 254°
2026-04-28 01:26 17.98172 -66.74880 23489 ft 405 kts 254°
2026-04-28 01:26 17.97456 -66.77758 23785 ft 409 kts 254°
2026-04-28 01:26 17.96734 -66.80657 24132 ft 411 kts 253°
2026-04-28 01:26 17.96009 -66.83569 24508 ft 412 kts 253°
2026-04-28 01:27 17.95283 -66.86484 24872 ft 414 kts 253°
2026-04-28 01:27 17.94553 -66.89421 25231 ft 416 kts 253°
2026-04-28 01:27 17.93820 -66.92361 25599 ft 417 kts 253°
2026-04-28 01:27 17.93096 -66.95269 25957 ft 418 kts 253°
2026-04-28 01:28 17.92359 -66.98224 26299 ft 420 kts 253°
2026-04-28 01:28 17.91617 -67.01197 26642 ft 421 kts 253°
2026-04-28 01:28 17.90872 -67.04177 26970 ft 423 kts 253°
2026-04-28 01:28 17.90125 -67.07169 27294 ft 424 kts 253°
2026-04-28 01:29 17.89374 -67.10168 27611 ft 426 kts 253°
2026-04-28 01:29 17.88620 -67.13184 27916 ft 428 kts 253°
2026-04-28 01:29 17.87862 -67.16210 28216 ft 429 kts 253°
2026-04-28 01:29 17.87111 -67.19206 28515 ft 431 kts 253°
2026-04-28 01:30 17.86346 -67.22255 28823 ft 432 kts 253°
2026-04-28 01:30 17.85581 -67.25307 29161 ft 433 kts 253°
2026-04-28 01:30 17.84813 -67.28365 29521 ft 433 kts 253°
2026-04-28 01:30 17.84047 -67.31413 29968 ft 431 kts 252°
2026-04-28 01:31 17.83285 -67.34446 30346 ft 429 kts 252°
2026-04-28 01:31 17.82525 -67.37468 30678 ft 428 kts 252°
2026-04-28 01:31 17.81766 -67.40483 31003 ft 427 kts 252°
2026-04-28 01:31 17.81018 -67.43449 31321 ft 426 kts 252°
2026-04-28 01:32 17.80261 -67.46451 31643 ft 425 kts 252°
2026-04-28 01:32 17.79506 -67.49445 31971 ft 424 kts 252°
2026-04-28 01:32 17.78751 -67.52432 32295 ft 423 kts 252°
2026-04-28 01:32 17.77999 -67.55410 32634 ft 421 kts 252°
2026-04-28 01:33 17.77256 -67.58351 33172 ft 414 kts 252°
2026-04-28 01:33 17.76520 -67.61262 33464 ft 414 kts 252°
2026-04-28 01:33 17.75031 -67.67125 33669 ft 421 kts 252°
2026-04-28 01:34 17.74280 -67.70088 33989 ft 419 kts 252°
2026-04-28 01:34 17.73532 -67.73036 34287 ft 417 kts 252°
2026-04-28 01:34 17.72788 -67.75972 34564 ft 415 kts 252°
2026-04-28 01:34 17.72047 -67.78888 34827 ft 414 kts 252°
2026-04-28 01:35 17.71307 -67.81800 35084 ft 412 kts 252°
2026-04-28 01:35 17.70570 -67.84700 35321 ft 411 kts 252°
2026-04-28 01:35 17.69843 -67.87554 35548 ft 410 kts 252°
2026-04-28 01:35 17.69108 -67.90438 35783 ft 409 kts 252°
2026-04-28 01:36 17.68376 -67.93313 36012 ft 408 kts 252°
2026-04-28 01:36 17.67644 -67.96181 36209 ft 407 kts 252°
2026-04-28 01:36 17.67015 -67.99073 36407 ft 408 kts 258°
2026-04-28 01:36 17.66733 -68.02032 36596 ft 409 kts 263°
2026-04-28 01:37 17.66614 -68.05013 36789 ft 409 kts 265°
2026-04-28 01:37 17.66557 -68.07991 36984 ft 408 kts 265°
2026-04-28 01:37 17.66534 -68.10929 37169 ft 407 kts 266°
2026-04-28 01:37 17.66524 -68.13892 37349 ft 407 kts 266°
2026-04-28 01:38 17.66515 -68.16854 37521 ft 406 kts 266°
2026-04-28 01:38 17.66502 -68.19812 37687 ft 405 kts 265°
2026-04-28 01:38 17.66485 -68.22757 37867 ft 404 kts 265°
2026-04-28 01:38 17.66464 -68.25694 38023 ft 403 kts 265°
2026-04-28 01:39 17.66411 -68.31583 38053 ft 403 kts 265°
2026-04-28 01:39 17.66356 -68.37417 38053 ft 403 kts 265°
2026-04-28 01:40 17.66300 -68.43281 38054 ft 402 kts 265°
2026-04-28 01:40 17.66242 -68.49151 38052 ft 402 kts 265°
2026-04-28 01:41 17.66182 -68.55014 38053 ft 402 kts 265°
2026-04-28 01:41 17.66122 -68.60837 38054 ft 401 kts 265°
2026-04-28 01:42 17.66059 -68.66689 38050 ft 401 kts 265°
2026-04-28 01:42 17.65995 -68.72536 38051 ft 401 kts 265°
2026-04-28 01:43 17.65929 -68.78388 38049 ft 401 kts 265°
2026-04-28 01:43 17.65861 -68.84239 38047 ft 401 kts 265°
2026-04-28 01:44 17.65792 -68.90043 38051 ft 400 kts 265°
2026-04-28 01:44 17.65721 -68.95878 38051 ft 400 kts 265°
2026-04-28 01:45 17.65649 -69.01705 38051 ft 400 kts 265°
2026-04-28 01:45 17.65574 -69.07531 38050 ft 400 kts 265°
2026-04-28 01:46 17.65498 -69.13319 38045 ft 400 kts 265°
2026-04-28 01:46 17.65421 -69.19149 38045 ft 400 kts 265°
2026-04-28 01:47 17.65341 -69.24970 38045 ft 399 kts 265°
2026-04-28 01:47 17.65261 -69.30784 38045 ft 399 kts 265°
2026-04-28 01:48 17.65178 -69.36553 38045 ft 399 kts 265°
2026-04-28 01:48 17.65094 -69.42365 38046 ft 399 kts 265°
2026-04-28 01:49 17.65007 -69.48190 38046 ft 400 kts 265°
2026-04-28 01:49 17.64919 -69.54016 38051 ft 400 kts 265°
2026-04-28 01:50 17.64831 -69.59799 38046 ft 399 kts 265°
2026-04-28 01:50 17.64739 -69.65614 38046 ft 399 kts 265°
2026-04-28 01:51 17.64646 -69.71426 38044 ft 399 kts 265°
2026-04-28 01:51 17.64552 -69.77241 38045 ft 399 kts 265°
2026-04-28 01:52 17.64455 -69.83052 38046 ft 399 kts 265°
2026-04-28 01:52 17.64358 -69.88827 38045 ft 399 kts 265°
2026-04-28 01:53 17.64258 -69.94640 38040 ft 399 kts 265°
2026-04-28 01:53 17.64157 -70.00453 38040 ft 399 kts 265°
2026-04-28 01:54 17.64054 -70.06264 38043 ft 399 kts 265°
2026-04-28 01:54 17.63950 -70.12037 38043 ft 399 kts 265°
2026-04-28 01:55 17.63843 -70.17852 38042 ft 399 kts 265°
2026-04-28 01:55 17.63735 -70.23663 38043 ft 399 kts 265°
2026-04-28 01:56 17.63624 -70.29483 38043 ft 400 kts 265°
2026-04-28 01:56 17.63513 -70.35272 38043 ft 400 kts 265°
2026-04-28 01:57 17.63400 -70.41100 38043 ft 400 kts 265°
2026-04-28 01:57 17.63285 -70.46922 38043 ft 400 kts 265°
2026-04-28 01:58 17.63168 -70.52749 38041 ft 400 kts 265°
2026-04-28 01:58 17.63050 -70.58536 38042 ft 399 kts 265°
2026-04-28 01:59 17.62930 -70.64351 38043 ft 399 kts 265°
2026-04-28 01:59 17.62808 -70.70167 38042 ft 399 kts 265°
2026-04-28 02:00 17.62685 -70.75981 38045 ft 399 kts 265°
2026-04-28 02:00 17.62560 -70.81756 38045 ft 399 kts 265°
2026-04-28 02:01 17.62433 -70.87568 38043 ft 399 kts 265°
2026-04-28 02:01 17.62304 -70.93372 38045 ft 397 kts 265°
2026-04-28 02:02 17.62176 -70.99107 38041 ft 396 kts 265°
2026-04-28 02:02 17.62045 -71.04871 38039 ft 396 kts 265°
2026-04-28 02:03 17.61912 -71.10640 38039 ft 396 kts 265°
2026-04-28 02:03 17.61777 -71.16407 38039 ft 396 kts 265°
2026-04-28 02:04 17.61641 -71.22177 38039 ft 396 kts 265°
2026-04-28 02:04 17.61504 -71.27906 38039 ft 396 kts 265°
2026-04-28 02:05 17.61365 -71.33677 38042 ft 396 kts 265°
2026-04-28 02:05 17.61224 -71.39447 38042 ft 396 kts 265°
2026-04-28 02:06 17.61082 -71.45180 38042 ft 396 kts 265°
2026-04-28 02:06 17.60937 -71.50948 38042 ft 396 kts 264°
2026-04-28 02:07 17.60791 -71.56715 38044 ft 396 kts 264°
2026-04-28 02:07 17.60643 -71.62489 38041 ft 396 kts 264°
2026-04-28 02:08 17.60493 -71.68268 38040 ft 397 kts 264°
2026-04-28 02:08 17.60343 -71.74003 38039 ft 396 kts 264°
2026-04-28 02:09 17.60190 -71.79783 38038 ft 397 kts 264°
2026-04-28 02:09 17.60035 -71.85560 38037 ft 397 kts 264°
2026-04-28 02:10 17.59879 -71.91338 38045 ft 397 kts 264°
2026-04-28 02:10 17.59721 -71.97086 38039 ft 398 kts 264°
2026-04-28 02:11 17.59560 -72.02891 38036 ft 399 kts 264°
2026-04-28 02:11 17.59398 -72.08700 38035 ft 399 kts 264°
2026-04-28 02:12 17.59234 -72.14507 38031 ft 399 kts 264°
2026-04-28 02:12 17.59069 -72.20283 38034 ft 399 kts 264°
2026-04-28 02:13 17.58902 -72.26101 38037 ft 399 kts 264°
2026-04-28 02:13 17.58732 -72.31924 38034 ft 400 kts 264°
2026-04-28 02:14 17.58560 -72.37764 38034 ft 401 kts 264°
2026-04-28 02:14 17.58388 -72.43564 38034 ft 401 kts 264°
2026-04-28 02:15 17.58125 -72.52318 38034 ft 401 kts 264°
2026-04-28 02:16 17.57947 -72.58156 38034 ft 401 kts 264°
2026-04-28 02:16 17.57768 -72.63997 38035 ft 402 kts 264°
2026-04-28 02:17 17.57587 -72.69818 38036 ft 403 kts 264°
2026-04-28 02:17 17.57403 -72.75685 38037 ft 403 kts 264°
2026-04-28 02:18 17.57218 -72.81554 38039 ft 403 kts 264°
2026-04-28 02:18 17.57032 -72.87383 38036 ft 403 kts 264°
2026-04-28 02:19 17.56843 -72.93245 38037 ft 403 kts 264°
2026-04-28 02:19 17.56652 -72.99116 38034 ft 403 kts 265°
2026-04-28 02:20 17.56459 -73.04999 38040 ft 404 kts 265°
2026-04-28 02:20 17.56266 -73.10845 38033 ft 404 kts 265°
2026-04-28 02:21 17.56069 -73.16729 38033 ft 404 kts 265°
2026-04-28 02:21 17.55871 -73.22616 38036 ft 404 kts 265°
2026-04-28 02:22 17.55839 -73.23569 38033 ft 404 kts 265°